Danbury, CT

5:45 PM EDT on August 24, 2016 (GMT -0400)
Danbury Municipal

Weather History for KDXR - November, 2000

Change the Weather History Date:

Tuesday, November 7, 2000

  Actual Average Record
Temperature  
Mean Temperature 46 °F -  
Max Temperature 55 °F 52 °F 72 °F (1975)
Min Temperature 36 °F 32 °F 20 °F (1962)
Degree Days  
Heating Degree Days 20    
Moisture  
Dew Point 36 °F    
Average Humidity 73    
Maximum Humidity 89    
Minimum Humidity 53    
Precipitation  
Precipitation 0.00 in - - ()
Sea Level Pressure  
Sea Level Pressure 30.06 in    
Wind  
Wind Speed 6 mph (NNW)    
Max Wind Speed 10 mph    
Max Gust Speed -    
Visibility 10 miles    
Events      
Averages and records for this station are not official NWS values.
T = Trace of Precipitation, MM = Missing Value Source: NWS Daily Summary

Daily Weather History Graph

Daily Weather History Graph

Search for Another Location

Airport or City:

Trip Planner

Search our weather history database for the weather conditions in past years. The results will help you decide how hot, cold, wet, or windy it might be!

Date:

Astronomy

Nov. 07, 2000 Rise Set
Actual Time 6:33 AM EST 4:41 PM EST
Civil Twilight 6:03 AM EST 5:10 PM EST
Nautical Twilight 5:30 AM EST 5:43 PM EST
Astronomical Twilight 4:58 AM EST 6:16 PM EST
Moon 2:57 PM EST (11/7) 1:38 AM EST (11/7)
Length of Visible Light 11h 06m
Length of Day
10h 08m
Waxing Gibbous, 81% of the Moon is Illuminated
Nov 7
Waxing Gibbous
Nov 11
Full
Nov 18
Last Quarter
Nov 25
New
Dec 3
First Quarter

Hourly Weather History & Observations

Time (EST) Temp. Windchill Dew Point Humidity Pressure Visibility Wind Dir Wind Speed Gust Speed Precip Events Conditions
12:53 AM 37.9 °F 32.7 °F 32.0 °F 79% 30.06 in 10.0 mi NW 6.9 mph - N/A   Clear
1:53 AM 37.0 °F 34.5 °F 32.0 °F 82% 30.07 in 10.0 mi WNW 3.5 mph - N/A   Clear
2:53 AM 37.0 °F 34.5 °F 33.1 °F 86% 30.07 in 10.0 mi Variable 3.5 mph - N/A   Clear
3:53 AM 39.0 °F 33.4 °F 34.0 °F 82% 30.08 in 10.0 mi North 8.1 mph - N/A   Clear
4:53 AM 39.0 °F 34.8 °F 34.0 °F 82% 30.07 in 10.0 mi Variable 5.8 mph - N/A   Clear
5:53 AM 36.0 °F - 33.1 °F 89% 30.08 in 10.0 mi Calm Calm - N/A   Mostly Cloudy
6:35 AM 37.4 °F 34.9 °F 33.8 °F 87% 30.08 in 10.0 mi WNW 3.5 mph - N/A   Scattered Clouds
6:53 AM 36.0 °F 33.3 °F 33.1 °F 89% 30.09 in 10.0 mi WNW 3.5 mph - N/A   Partly Cloudy
7:53 AM 42.1 °F 37.7 °F 35.1 °F 76% 30.10 in 10.0 mi NW 6.9 mph - N/A   Clear
8:53 AM 46.0 °F 41.4 °F 36.0 °F 68% 30.09 in 10.0 mi NNW 9.2 mph - N/A   Clear
9:53 AM 48.9 °F - 37.0 °F 64% 30.08 in 10.0 mi NNW 10.4 mph - N/A   Clear
10:53 AM 52.0 °F - 37.0 °F 57% 30.06 in 10.0 mi NNW 8.1 mph - N/A   Clear
11:53 AM 54.0 °F - 37.9 °F 55% 30.03 in 10.0 mi NNW 9.2 mph - N/A   Clear
12:53 PM 55.0 °F - 37.9 °F 53% 30.01 in 10.0 mi NW 9.2 mph - N/A   Clear
1:53 PM 55.0 °F - 37.9 °F 53% 30.01 in 10.0 mi NW 6.9 mph - N/A   Clear
2:53 PM 53.1 °F - 37.9 °F 57% 30.02 in 10.0 mi NNW 10.4 mph - N/A   Clear
3:53 PM 53.1 °F - 37.9 °F 57% 30.03 in 10.0 mi NW 8.1 mph - N/A   Clear
4:53 PM 50.0 °F - 37.9 °F 63% 30.03 in 10.0 mi North 6.9 mph - N/A   Clear
5:53 PM 48.0 °F - 37.9 °F 68% 30.05 in 10.0 mi North 6.9 mph - N/A   Clear
6:53 PM 46.0 °F 41.9 °F 37.9 °F 73% 30.06 in 10.0 mi NNE 8.1 mph - N/A   Clear
7:53 PM 46.0 °F 42.5 °F 37.9 °F 73% 30.06 in 10.0 mi North 6.9 mph - N/A   Clear
8:53 PM 45.0 °F 41.8 °F 37.9 °F 76% 30.06 in 10.0 mi NNE 5.8 mph - N/A   Clear
9:53 PM 39.0 °F - 36.0 °F 89% 30.08 in 10.0 mi Calm Calm - N/A   Clear
10:53 PM 37.0 °F - 34.0 °F 89% 30.09 in 10.0 mi Calm Calm - N/A   Clear
11:53 PM 37.0 °F - 34.0 °F 89% 30.07 in 10.0 mi Calm Calm - N/A   Clear